SCP
0 0 0 0 0 0 0 0 0 0 0 0 0 0 0 0 0 0 0 0 0 0
0 0 0 0 0 0 0 0 0 0 0 0 0 0 0 0 0 0 0 0 0 0
0 0 0 0 0 0 0 0 0 0 0 0 0 0 0 0 0 0 0 0 0 0
0 0 0 0 0 0 0 0 0 0 0 0 0 0 0 0 0 0 0 0 0 0
0 0 0 0 0 0 0 0 0 0 0 0 0 0 0 0 0 0 0 0 0 0
0 0 0 0 0 0 0 0 0 0 0 0 0 0 0 0 0 0 0 0 0 0
0 0 0 0 0 0 0 0 0 0 0 0 0 0 0 0 0 0 0 0 0 0
0 0 0 0 0 0 0 0 0 0 0 0 0 0 0 0 0 0 0 0 0 0
0 0 0 0 0 0 0 0 0 0 0 0 0 0 0 0 0 0 0 0 0 0
0 0 0 0 0 0 0 0 0 0 0 0 0 0 0 0 0 0 0 0 0 0
0 0 0 0 0 0 0 0 0 0 0 0 0 0 0 0 0 0 0 0 0 0
0 0 0 0 0 0 0 0 0 0 0 0 0 0 0 0 0 0 0 0 0 0
0 0 0 0 0 0 0 0 0 0 0 0 0 0 0 0 0 0 0 0 0 0
0 0 0 0 0 0 0 0 0 0 0 0 0 0 0 0 0 0 0 0 0 0
Wind_Speed_500mb
27 24 22 17 13 8 3 2 6 9 12 13 15 16 17 18 19 20 21 22 23 25
30 26 20 16 11 7 6 5 7 9 12 14 16 17 18 20 23 24 26 27 27 27
29 25 19 13 11 9 6 6 7 9 12 16 19 22 24 25 26 26 28 29 30 29
28 22 16 14 13 11 10 8 8 11 17 21 24 26 28 29 29 29 30 30 30 29
25 19 18 17 16 16 13 9 9 16 22 25 27 29 30 31 30 30 30 30 29 29
25 23 21 21 20 18 14 9 13 20 24 28 30 31 31 32 32 33 33 32 30 29
28 25 24 24 23 19 14 13 18 23 28 30 31 32 33 34 35 34 33 32 32 31
31 30 30 29 26 22 18 17 22 27 29 32 33 34 34 34 35 35 33 31 30 29
36 33 32 31 30 25 19 20 24 28 31 33 33 35 35 35 34 34 31 30 30 29
37 37 37 37 34 28 24 22 24 29 32 35 34 35 36 34 33 32 32 30 29 28
42 42 43 43 39 33 28 25 28 33 37 36 35 37 38 34 33 32 31 30 30 29
45 46 48 47 42 35 30 31 34 40 41 38 39 40 38 34 32 31 32 31 32 28
47 49 51 47 45 37 35 38 43 44 43 43 44 42 38 37 32 31 32 33 33 27
51 53 52 51 49 42 42 45 47 47 48 49 46 42 41 39 34 32 33 35 32 29
Wind_Direction_500mb
206 202 194 185 181 185 197 283 326 340 344 344 346 345 343 337 329 323 316 310 304 298
197 192 185 184 185 197 227 287 316 331 339 340 336 333 328 325 322 320 315 311 305 300
189 183 183 190 208 222 249 286 310 321 324 327 328 327 325 322 320 317 315 313 308 303
183 183 193 209 220 227 241 256 288 318 327 324 320 320 317 317 316 314 312 308 304 302
186 197 212 219 222 225 234 258 306 324 318 313 312 314 314 314 313 311 310 306 302 300
203 217 224 225 224 229 242 274 306 307 310 312 313 313 313 315 313 312 308 304 300 295
222 228 231 230 228 233 243 272 299 308 310 310 311 313 314 312 309 306 303 301 301 301
229 232 232 229 229 235 249 283 300 302 305 309 310 309 306 306 305 304 303 304 302 301
232 235 234 231 233 237 255 278 295 306 308 304 299 296 301 306 305 303 303 302 300 300
237 238 235 232 234 238 253 272 298 306 300 291 291 295 299 303 306 301 298 296 295 297
241 239 235 233 234 240 255 275 289 291 289 289 289 290 292 303 299 293 292 292 291 290
245 242 237 236 235 245 256 270 279 281 285 288 284 283 286 292 287 288 286 288 287 278
251 247 241 241 239 248 258 268 272 279 285 284 279 277 279 282 281 281 279 282 281 267
255 250 244 243 241 250 261 267 273 279 280 278 276 271 271 275 276 278 271 274 270 267
Wind_Speed_850mb
27 24 22 17 13 8 3 2 6 9 12 13 15 16 17 18 19 20 21 22 23 25
30 26 20 16 11 7 6 5 7 9 12 14 16 17 18 20 23 24 26 27 27 27
29 25 19 13 11 9 6 6 7 9 12 16 19 22 24 25 26 26 28 29 30 29
28 22 16 14 13 11 10 8 8 11 17 21 24 26 28 29 29 29 30 30 30 29
25 19 18 17 16 16 13 9 9 16 22 25 27 29 30 31 30 30 30 30 29 29
25 23 21 21 20 18 14 9 13 20 24 28 30 31 31 32 32 33 33 32 30 29
28 25 24 24 23 19 14 13 18 23 28 30 31 32 33 34 35 34 33 32 32 31
31 30 30 29 26 22 18 17 22 27 29 32 33 34 34 34 35 35 33 31 30 29
36 33 32 31 30 25 19 20 24 28 31 33 33 35 35 35 34 34 31 30 30 29
37 37 37 37 34 28 24 22 24 29 32 35 34 35 36 34 33 32 32 30 29 28
42 42 43 43 39 33 28 25 28 33 37 36 35 37 38 34 33 32 31 30 30 29
45 46 48 47 42 35 30 31 34 40 41 38 39 40 38 34 32 31 32 31 32 28
47 49 51 47 45 37 35 38 43 44 43 43 44 42 38 37 32 31 32 33 33 27
51 53 52 51 49 42 42 45 47 47 48 49 46 42 41 39 34 32 33 35 32 29
Wind_Direction_850mb
206 202 194 185 181 185 197 283 326 340 344 344 346 345 343 337 329 323 316 310 304 298
197 192 185 184 185 197 227 287 316 331 339 340 336 333 328 325 322 320 315 311 305 300
189 183 183 190 208 222 249 286 310 321 324 327 328 327 325 322 320 317 315 313 308 303
183 183 193 209 220 227 241 256 288 318 327 324 320 320 317 317 316 314 312 308 304 302
186 197 212 219 222 225 234 258 306 324 318 313 312 314 314 314 313 311 310 306 302 300
203 217 224 225 224 229 242 274 306 307 310 312 313 313 313 315 313 312 308 304 300 295
222 228 231 230 228 233 243 272 299 308 310 310 311 313 314 312 309 306 303 301 301 301
229 232 232 229 229 235 249 283 300 302 305 309 310 309 306 306 305 304 303 304 302 301
232 235 234 231 233 237 255 278 295 306 308 304 299 296 301 306 305 303 303 302 300 300
237 238 235 232 234 238 253 272 298 306 300 291 291 295 299 303 306 301 298 296 295 297
241 239 235 233 234 240 255 275 289 291 289 289 289 290 292 303 299 293 292 292 291 290
245 242 237 236 235 245 256 270 279 281 285 288 284 283 286 292 287 288 286 288 287 278
251 247 241 241 239 248 258 268 272 279 285 284 279 277 279 282 281 281 279 282 281 267
255 250 244 243 241 250 261 267 273 279 280 278 276 271 271 275 276 278 271 274 270 267